Flag for U.S.A. Weather past 2 weeks in Daytona Beach, Florida, U.S.A.

Now
47 °F

Passing clouds.


Feels Like: 45 °F
Forecast: 48 / 64 °F
Wind: 5 mph from Southwest

Location: Daytona Beach Regional Airport

Current Time: Jan 30, 2015 at 6:42:17 AM

Latest Report: Jan 30, 2015 at 5:53 AM


Visibility: 10 mi

Pressure: 30.18 "Hg

Humidity: 83%

Dew point: 42 °F

Location of Daytona BeachLocation

Historic Weather in Daytona Beach — Graph

°F

Daytona Beach temperature yesterday

Maximum temperature yesterday: 68 °F (at 12:53 PM)
Minimum temperature yesterday: 40 °F (at 2:53 AM)
Average temperature yesterday: 54 °F

Past Weeks' High & Low Weather Summary

 TemperatureHumidityPressure
High75 °F (Jan 23, 10:53 AM)100% (Jan 18, 1:53 AM)30.33 "Hg (Jan 18, 1:53 AM)
Low39 °F (Jan 25, 6:53 AM)28% (Jan 25, 2:53 PM)29.76 "Hg (Jan 24, 5:53 AM)
Average57 °F75%30.08 "Hg
* Reported Jan 15 4:53 AM — Jan 30 4:53 AM, Daytona Beach, Weather by CustomWeather, © 2014

Note: Actual official high and low records may vary slightly from our data, if they occured in-between our weather recording intervals... More about our weather records

Advertising

Daytona Beach weather history for previous 24 hours

 ConditionsComfort  
Time TempWeatherWind HumidityBarometerVisibility
4:53 AM
Jan 30
48 °FClear.3 mph80%30.18 "Hg10 mi
3:53 AM49 °FClear.5 mph84%30.19 "Hg10 mi
2:53 AM49 °FPassing clouds.No wind90%30.18 "Hg10 mi
1:53 AM50 °FPassing clouds.5 mph89%30.18 "Hg10 mi
12:53 AM50 °FPassing clouds.3 mph89%30.20 "Hg10 mi
11:53 PM
Jan 29
49 °FPassing clouds.5 mph93%30.22 "Hg10 mi
10:53 PM51 °FPassing clouds.3 mph89%30.23 "Hg10 mi
9:53 PM52 °FClear.No wind89%30.24 "Hg10 mi
8:53 PM54 °FPassing clouds.No wind83%30.25 "Hg10 mi
7:53 PM56 °FPassing clouds.3 mph77%30.25 "Hg10 mi
6:53 PM60 °FPassing clouds.No wind67%30.24 "Hg10 mi
5:53 PM63 °FPassing clouds.No wind58%30.23 "Hg10 mi
4:53 PM65 °FSunny.7 mph54%30.23 "Hg10 mi
3:53 PM67 °FScattered clouds.6 mph51%30.23 "Hg10 mi
2:53 PM67 °FScattered clouds.8 mph51%30.23 "Hg10 mi
1:53 PM68 °FPassing clouds.7 mph49%30.25 "Hg10 mi
12:53 PM68 °FScattered clouds.7 mph47%30.29 "Hg10 mi
11:53 AM67 °FScattered clouds.N/A51%30.31 "Hg10 mi
10:53 AM64 °FScattered clouds.No wind56%30.32 "Hg10 mi
9:53 AM56 °FScattered clouds.No wind70%30.33 "Hg10 mi
8:53 AM49 °FPartly sunny.5 mph80%30.32 "Hg10 mi
7:53 AM44 °FBroken clouds.5 mph85%30.31 "Hg10 mi
6:53 AM41 °FPassing clouds.3 mph89%30.29 "Hg10 mi
Weather by CustomWeather, © 2014

See weather overviewHow to use our weather pages